#timestamp,LO_Frequency,Hit,StdDev 
1540551615.1,286046999.1,P
1540551635.8,286046999.4,P
1540551655.7,286046996.9,P
1540551675.5,286046996.5,Y
1540551695.4,286046999.0,P
1540551715.2,286047001.0,P
1540551735.0,286047002.8,N
1540551735.9,286047002.8,N
1540551755.8,286047002.0,N
1540551775.6,286047002.6,N
1540551795.4,286047002.3,N
1540551815.3,286047003.9,N
1540551835.1,286047001.7,N
1540551855.9,286047004.1,N
1540551875.7,286047001.7,N
1540551895.5,286047003.8,N
1540551915.4,286047001.8,N
1540551935.2,286047004.0,N
1540551955.0,286047005.8,Y
1540551955.9,286047005.8,P
1540551975.8,286047000.0,N
1540551995.6,286047001.1,N
1540552015.5,286046998.3,N
1540552035.3,286046996.5,N
1540552055.1,286046996.8,N
1540552075.9,286046997.5,N
1540552095.7,286046995.5,N
1540552115.5,286046995.1,N
1540552135.4,286046993.8,N
1540552155.2,286046993.8,N
1540552175.1,286046993.4,N
1540552176.0,286046993.4,N
1540552195.8,286046993.8,N
1540552215.6,286046997.6,N
1540552235.5,286046995.8,N
1540552255.3,286046997.2,N
1540552275.1,286047001.8,N
1540552295.9,286047001.5,N
1540552315.7,286047002.0,N
1540552335.6,286047002.5,N
1540552355.4,286047002.1,N
1540552375.2,286047004.3,N
1540552395.1,286047002.8,N
1540552396.0,286047002.8,N
1540552415.8,286047001.0,N
1540552435.7,286047001.1,N
1540552455.5,286046999.3,N
1540552475.3,286046999.3,N
1540552495.2,286046996.6,N
1540552515.0,286046999.1,N
1540552515.9,286046999.1,N
1540552535.7,286046999.1,N
1540552555.6,286047000.7,N
1540552575.4,286046998.9,N
1540552595.3,286046999.6,N
1540552615.1,286046999.5,N
1540552616.0,286046999.5,N
1540552635.8,286046999.1,N
1540552655.7,286047001.0,N
1540552675.5,286046998.5,N
1540552695.4,286046998.6,N
1540552715.2,286046998.5,N
1540552735.0,286046998.8,N
1540552735.9,286046998.8,N
1540552755.8,286047000.7,N
1540552775.6,286047002.0,N
1540552795.4,286047001.0,N
1540552815.3,286047002.6,N
1540552835.1,286047000.0,N
1540552855.9,286046998.1,N
1540552875.7,286046998.4,N
1540552895.5,286047001.2,N
1540552915.4,286046999.4,N
1540552935.2,286046998.8,N
1540552955.1,286046998.2,N
1540552956.0,286046998.2,N
1540552975.8,286047001.0,N
1540552995.6,286047000.1,N
1540553015.5,286047001.8,N
1540553035.3,286047004.3,Y
1540553055.2,286047004.8,P
1540553075.9,286047003.5,N
1540553095.7,286047001.3,N
1540553115.6,286047002.1,N
1540553135.4,286047002.7,N
1540553155.2,286047002.5,N
1540553175.1,286047002.6,N
1540553176.0,286047002.6,N
1540553195.8,286046999.9,N
1540553215.7,286047001.4,N
1540553235.5,286047001.6,N
1540553255.3,286047002.5,N
1540553275.2,286046999.8,N
1540553295.0,286047001.2,N
1540553295.9,286047001.2,N
1540553315.7,286046998.2,N
1540553335.6,286047000.3,N
1540553355.4,286047000.1,N
1540553375.3,286047002.1,N
1540553395.1,286047001.5,N
1540553396.0,286047001.5,N
1540553415.8,286047001.8,N
1540553435.7,286047004.2,N
1540553455.5,286047003.1,N
1540553475.4,286047003.4,N
1540553495.2,286047005.6,Y
1540553515.0,286047001.8,P
1540553515.9,286047001.8,P
1540553535.8,286047002.1,P
1540553555.6,286047002.4,Y
1540553575.5,286046997.2,P
1540553595.3,286046996.8,N
1540553615.1,286046997.6,N
1540553635.9,286047000.8,N
1540553655.7,286047000.6,N
1540553675.5,286047000.3,N
1540553695.4,286047002.3,N
1540553715.2,286047000.6,N
1540553735.0,286047002.2,N
1540553736.0,286047002.2,N
1540553755.8,286047001.8,N
1540553775.6,286047002.0,N
1540553795.5,286047002.6,N
1540553815.3,286047000.0,N
1540553835.1,286047000.2,N
1540553855.9,286046998.6,N
1540553875.7,286047000.0,N
1540553895.5,286047000.7,N
1540553915.4,286046998.5,N
1540553935.2,286046999.3,N
1540553955.1,286046997.6,N
1540553956.0,286046997.6,N
1540553975.8,286046997.3,N
1540553995.6,286046999.8,N
1540554015.5,286047001.5,N
1540554035.3,286047002.7,N
1540554055.2,286047002.8,N
1540554075.9,286047000.2,N
1540554095.7,286047000.2,N
1540554115.6,286047000.4,N
1540554135.4,286047000.6,N
1540554155.2,286047000.7,N
1540554175.1,286047000.4,N
1540554176.0,286047000.4,N
1540554195.8,286047000.0,N
1540554215.7,286046998.5,N
1540554235.5,286046998.5,N
1540554255.3,286046998.6,N
1540554275.2,286047001.2,N
1540554295.0,286047000.7,N
1540554295.9,286047000.7,N
1540554315.8,286047000.3,N
1540554335.6,286046998.6,N
1540554355.4,286046998.2,N
1540554375.3,286046999.4,N
1540554395.1,286046998.6,N
1540554415.8,286046999.6,N
1540554435.7,286046997.0,N
1540554455.5,286046994.9,Y
1540554475.4,286046995.1,P
1540554495.2,286046996.3,N
1540554515.0,286046997.6,N
1540554515.9,286046997.6,N
1540554535.8,286046995.0,Y
1540554555.6,286046998.2,P
1540554575.5,286046998.2,P
1540554595.3,286047000.9,N
1540554615.1,286047002.8,N
1540554635.9,286047000.7,N
1540554655.7,286047000.9,N
1540554675.5,286046999.9,N
1540554695.4,286047001.2,N
1540554715.2,286047001.2,N
1540554735.0,286047000.4,N
1540554736.0,286047000.4,N
1540554755.8,286047000.3,N
1540554775.6,286047002.7,N
1540554795.5,286046998.5,N
1540554815.3,286046998.1,N
1540554835.1,286047000.7,N
1540554855.9,286047000.5,N
1540554875.7,286047002.7,N
1540554895.5,286047004.4,N
1540554915.4,286047001.8,N
1540554935.2,286047000.5,N
1540554955.1,286047000.8,N
1540554956.0,286047000.8,N
1540554975.8,286047002.6,N
1540554995.6,286047002.8,N
1540555015.5,286046999.7,N
1540555035.3,286046998.4,N
1540555055.1,286047001.1,N
1540555075.9,286047000.4,N
1540555095.7,286047000.8,N
1540555115.6,286046998.2,N
1540555135.4,286047000.9,N
1540555155.2,286046998.7,N
1540555175.1,286046998.7,N
1540555176.0,286046998.7,N
1540555195.8,286046995.3,Y
